This is the latest recevied weather packets stored in our database for station/object LRIA. If no packets are shown the sender has not sent any weather packets the latest 1 day(s).
| Time | Temp. | Humidity | Pressure | Rain* | Wind** | Luminosity | Snow |
|---|---|---|---|---|---|---|---|
| 1778005104 | 22.22° C | 33% | 1012 hPa | - | 2.24 m/s, 180° | - | - |
| 1778004203 | 22.22° C | 33% | 1012 hPa | - | 2.24 m/s, 180° | - | - |
| 1778003300 | 22.22° C | 31% | 1012 hPa | - | 2.68 m/s, 150° | - | - |
| 1778002403 | 22.22° C | 31% | 1012 hPa | - | 2.68 m/s, 150° | - | - |
| 1778001503 | 23.89° C | 27% | 1012 hPa | - | 2.68 m/s, 120° | - | - |
| 1778000603 | 23.89° C | 27% | 1012 hPa | - | 2.68 m/s, 120° | - | - |
| 1777999703 | 23.89° C | 27% | 1012 hPa | - | 2.68 m/s, 140° | - | - |
| 1777998803 | 23.89° C | 27% | 1012 hPa | - | 2.68 m/s, 140° | - | - |
| 1777997904 | 25° C | 24% | 1012 hPa | - | 2.68 m/s, 110° | - | - |
| 1777997004 | 25° C | 24% | 1012 hPa | - | 2.68 m/s, 110° | - | - |
| 1777996104 | 25° C | 26% | 1012 hPa | - | 2.68 m/s, 140° | - | - |
| 1777995203 | 25° C | 26% | 1012 hPa | - | 2.68 m/s, 140° | - | - |
| 1777992504 | 26.11° C | 24% | 1012 hPa | - | 1.34 m/s, 90° | - | - |
| 1777991603 | 26.11° C | 24% | 1012 hPa | - | 1.34 m/s, 90° | - | - |
| 1777990703 | 26.11° C | 24% | 1012 hPa | - | 2.68 m/s, 50° | - | - |
| 1777989803 | 26.11° C | 24% | 1012 hPa | - | 2.68 m/s, 50° | - | - |
| 1777985303 | 26.11° C | 23% | 1013 hPa | - | 2.68 m/s, 120° | - | - |
| 1777984403 | 26.11° C | 23% | 1013 hPa | - | 2.68 m/s, 120° | - | - |
| 1777983503 | 26.11° C | 26% | 1013 hPa | - | 2.68 m/s, 150° | - | - |
| 1777979903 | 25° C | 28% | 1014 hPa | - | 2.68 m/s, 140° | - | - |
| 1777979004 | 25° C | 28% | 1014 hPa | - | 2.68 m/s, 140° | - | - |
| 1777978104 | 23.89° C | 31% | 1014 hPa | - | 2.24 m/s, 160° | - | - |
| 1777977205 | 23.89° C | 31% | 1014 hPa | - | 2.24 m/s, 160° | - | - |
| 1777972703 | 22.78° C | 36% | 1015 hPa | - | 1.34 m/s, 170° | - | - |
| 1777971803 | 22.78° C | 36% | 1015 hPa | - | 1.34 m/s, 170° | - | - |
* Rain since midnight (hover to see other rain measurements)
** Current wind speed in m/s (hover to see current wind gust speed)